This is the latest recevied weather packets stored in our database for station/object BARLOW-WX. If no packets are shown the sender has not sent any weather packets the latest 10 day(s).
| Time | Temp. | Humidity | Pressure | Rain* | Wind** | Luminosity | Snow |
|---|---|---|---|---|---|---|---|
| 1788577279 | 21.11° C | 91% | 986.2 hPa | 0 mm | - | - | - |
| 1788576376 | 21.11° C | 90% | 986 hPa | 0 mm | - | - | - |
| 1788575477 | 21.11° C | 91% | 985.7 hPa | 0 mm | - | - | - |
| 1788574577 | 21.11° C | 91% | 985.7 hPa | 0 mm | - | - | - |
| 1788573677 | 21.11° C | 91% | 985.7 hPa | 0 mm | - | - | - |
| 1788572777 | 21.67° C | 89% | 985.1 hPa | 0 mm | - | - | - |
| 1788571882 | 21.67° C | 89% | 985.1 hPa | 0 mm | - | - | - |
| 1788570979 | 21.11° C | 89% | 985 hPa | 0 mm | - | - | - |
| 1788570076 | 21.11° C | 89% | 985 hPa | 0 mm | - | - | - |
| 1788569176 | 21.67° C | 87% | 984.8 hPa | 0 mm | - | - | - |
| 1788568285 | 21.67° C | 87% | 985.5 hPa | 0 mm | - | - | - |
| 1788567375 | 22.22° C | 87% | 985.5 hPa | 0 mm | - | - | - |
| 1788566483 | 22.78° C | 87% | 985.5 hPa | 0 mm | - | - | - |
| 1788565579 | 22.78° C | 83% | 985.7 hPa | 0 mm | - | - | - |
| 1788564679 | 23.33° C | 84% | 985.7 hPa | 0 mm | - | - | - |
| 1788563778 | 23.89° C | 84% | 985.7 hPa | 0 mm | - | - | - |
| 1788562883 | 23.89° C | 84% | 985.7 hPa | 0 mm | - | - | - |
| 1788561978 | 24.44° C | 83% | 985.1 hPa | 0 mm | - | - | - |
| 1788561079 | 24.44° C | 82% | 986 hPa | 0 mm | - | - | - |
| 1788560178 | 25° C | 82% | 986 hPa | 0 mm | - | - | - |
| 1788559283 | 25° C | 82% | 986 hPa | 0 mm | - | - | - |
| 1788558385 | 25° C | 85% | 985.4 hPa | 0 mm | - | - | - |
| 1788557485 | 25° C | 80% | 985.5 hPa | 0 mm | - | - | - |
| 1788556585 | 25.56° C | 80% | 985.6 hPa | 0 mm | - | - | - |
| 1788555684 | 25.56° C | 80% | 985.6 hPa | 0 mm | - | - | - |
* Rain latest hour (hover to see other rain measurements)
** Current wind speed in m/s (hover to see current wind gust speed)